Date,TemperatureHighF,TemperatureAvgF,TemperatureLowF,DewpointHighF,DewpointAvgF,DewpointLowF,HumidityHigh,HumidityAvg,HumidityLow,PressureMaxIn,PressureMinIn,WindSpeedMaxMPH,WindSpeedAvgMPH,GustSpeedMaxMPH,PrecipitationSumIn
2013-3-1,34.2,31.3,27.0,26.2,23.8,20.9,79,74,66,30.05,29.89,10,4,10,54.39
2013-3-2,29.5,25.8,23.6,21.0,19.1,16.7,85,76,67,30.05,29.95,10,4,10,62.16
2013-3-3,30.6,25.6,22.7,18.8,16.3,14.1,80,68,54,30.06,29.96,13,6,13,56.98
2013-3-4,36.7,27.3,19.1,16.7,13.2,10.2,72,56,37,30.15,30.00,14,5,14,62.16
2013-3-5,31.3,30.5,30.1,14.4,14.2,13.7,51,50,48,30.16,30.14,6,1,6,10.36
2013-3-9,41.6,40.9,40.0,23.0,22.5,21.3,49,48,46,30.44,30.43,7,4,7,10.36
2013-3-10,54.9,46.3,40.3,29.9,25.1,21.9,49,44,37,30.43,30.32,13,4,13,57.00
2013-3-11,50.0,43.8,35.8,45.5,33.9,22.2,89,69,42,30.33,30.04,19,5,19,62.17
2013-3-12,48.8,43.9,33.5,47.4,39.6,26.6,96,85,65,30.10,29.93,12,4,12,62.67
2013-3-13,41.2,33.9,27.2,27.2,22.0,15.9,76,62,42,30.17,30.02,13,3,13,64.10
2013-3-14,27.2,26.4,25.2,16.2,15.1,14.2,66,62,60,30.18,30.16,14,5,14,7.77
2013-3-16,53.3,41.8,31.5,44.2,36.4,29.7,94,82,70,30.09,29.82,12,4,12,41.50
2013-3-17,31.9,30.5,29.2,30.3,27.4,23.5,95,88,77,30.35,30.04,10,2,10,59.54
2013-3-18,31.3,28.5,25.9,29.8,26.2,23.7,94,91,78,30.36,30.02,9,2,13,54.39
2013-3-19,51.1,38.8,30.4,36.1,24.0,5.0,95,64,21,30.10,29.89,16,2,16,62.54
2013-3-20,45.0,36.1,29.2,26.1,11.9,5.8,83,38,25,30.10,29.92,13,2,13,62.17
2013-3-21,29.5,24.8,21.2,24.5,13.1,7.2,85,62,42,30.04,29.89,13,4,13,62.16
2013-3-22,41.2,29.1,21.8,17.9,13.3,8.2,62,52,38,30.12,29.99,10,3,10,62.16
2013-3-23,47.5,36.6,27.7,21.6,17.5,14.7,60,47,28,30.15,30.07,10,2,10,62.16
2013-3-24,35.1,30.5,27.9,25.6,20.9,17.3,90,68,56,30.10,29.76,12,2,12,62.13
2013-3-25,35.5,30.3,27.5,30.6,27.5,24.9,93,89,81,29.85,29.66,5,0,5,54.43
2013-3-26,39.2,33.8,29.5,28.8,26.6,24.5,89,75,60,30.15,29.85,12,3,12,59.69
2013-3-27,38.5,34.0,29.9,27.1,24.7,21.6,78,69,59,30.26,30.13,12,3,12,62.24
2013-3-28,40.0,35.6,32.2,27.6,25.7,23.2,73,67,59,30.36,30.21,13,4,13,62.24
2013-3-29,47.9,40.4,34.2,30.7,26.6,22.7,76,59,39,30.38,30.29,10,2,10,62.17
2013-3-30,53.3,44.5,37.3,28.6,24.8,22.1,58,46,31,30.37,30.24,10,2,10,56.98
2013-3-31,49.1,43.5,38.3,44.8,35.5,24.0,90,74,46,30.25,29.93,10,3,10,59.64